When you browse on this site, cookies collect data to enhance your experience and personalize the content and advertising you see.
Visit our Privacy Policy to learn more. By continuing to use the site, you agree to this use of cookies and data.
  • en Suisse
  • Liste des pays
  • À 7 jours
  • Température de l'eau
  • Carte météo
  • Widgets météo
  • user-avatar
    Se connecter

    Météo par heure à Debaltsevo

    Ce jour, 24 Février, Lundi

    Heure Température Précipitation Vent Pression Humidité
    00:00 -1°C° 0.1 mm 8 m/s 729 mmHg 92%
    01:00 -1°C° 0.2 mm 7 m/s 729 mmHg 93%
    02:00 -1°C° 0.2 mm 7 m/s 728 mmHg 94%
    03:00 -1°C° 0 mm 6 m/s 728 mmHg 96%
    04:00 -1°C° 0.3 mm 6 m/s 727 mmHg 96%
    05:00 -1°C° 0.3 mm 6 m/s 726 mmHg 96%
    06:00 -1°C° 0.3 mm 6 m/s 726 mmHg 96%
    07:00 -1°C° 0.5 mm 7 m/s 725 mmHg 96%
    08:00 -1°C° 0.5 mm 7 m/s 724 mmHg 97%
    09:00 -2°C° 0 mm 7 m/s 724 mmHg 96%
    10:00 -2°C° 0.4 mm 7 m/s 723 mmHg 96%
    11:00 -2°C° 0.4 mm 8 m/s 722 mmHg 96%
    12:00 -2°C° 0.4 mm 8 m/s 721 mmHg 96%
    13:00 -2°C° 0.3 mm 8 m/s 720 mmHg 96%
    14:00 -1°C° 0.3 mm 8 m/s 719 mmHg 95%
    15:00 -1°C° 0.3 mm 9 m/s 717 mmHg 95%
    16:00 -1°C° 0.5 mm 8 m/s 716 mmHg 95%
    17:00 0°C° 0.5 mm 7 m/s 715 mmHg 95%
    18:00 +1°C° 0.5 mm 6 m/s 714 mmHg 96%
    19:00 +1°C° 1 mm 5 m/s 714 mmHg 96%
    20:00 +1°C° 1 mm 5 m/s 713 mmHg 97%
    21:00 +1°C° 1 mm 4 m/s 713 mmHg 97%
    22:00 0°C° 1.2 mm 4 m/s 713 mmHg 97%
    23:00 0°C° 1.2 mm 4 m/s 713 mmHg 97%

    Demain, 25 Février, Mardi

    Heure Température Précipitation Vent Pression Humidité
    00:00 0°C° 1.2 mm 4 m/s 713 mmHg 97%
    01:00 -2°C° 0.9 mm 6 m/s 714 mmHg 97%
    02:00 -2°C° 0.9 mm 8 m/s 715 mmHg 96%
    03:00 -3°C° 0.9 mm 10 m/s 716 mmHg 96%
    04:00 -4°C° 0.8 mm 10 m/s 717 mmHg 95%
    05:00 -4°C° 0.8 mm 11 m/s 718 mmHg 95%
    06:00 -6°C° 0.8 mm 12 m/s 720 mmHg 94%
    07:00 -4°C° 0.1 mm 11 m/s 721 mmHg 90%
    08:00 -4°C° 0.1 mm 10 m/s 723 mmHg 85%
    09:00 -4°C° 0.1 mm 10 m/s 725 mmHg 81%
    10:00 -4°C° 0 mm 9 m/s 726 mmHg 75%
    11:00 -3°C° 0 mm 9 m/s 727 mmHg 70%
    12:00 -3°C° 0 mm 9 m/s 728 mmHg 65%
    13:00 -1°C° 0 mm 8 m/s 728 mmHg 63%
    14:00 -1°C° 0 mm 8 m/s 729 mmHg 60%
    15:00 0°C° 0 mm 7 m/s 729 mmHg 58%
    16:00 -1°C° 0 mm 6 m/s 730 mmHg 62%
    17:00 -1°C° 0 mm 5 m/s 730 mmHg 65%
    18:00 0°C° 0 mm 3 m/s 730 mmHg 69%
    19:00 -1°C° 0 mm 3 m/s 730 mmHg 71%
    20:00 -1°C° 0 mm 3 m/s 731 mmHg 72%
    21:00 -1°C° 0 mm 3 m/s 731 mmHg 74%
    22:00 -2°C° 0 mm 3 m/s 731 mmHg 74%
    23:00 -2°C° 0 mm 3 m/s 730 mmHg 73%

    Après-demain, 26 Février, Mercredi

    Heure Température Précipitation Vent Pression Humidité
    00:00 -2°C° 0 mm 3 m/s 730 mmHg 73%
    01:00 -3°C° 0 mm 4 m/s 730 mmHg 77%
    02:00 -2°C° 0 mm 4 m/s 730 mmHg 80%
    03:00 -2°C° 0 mm 4 m/s 730 mmHg 84%
    04:00 -2°C° 0 mm 4 m/s 729 mmHg 85%
    05:00 -2°C° 0 mm 5 m/s 729 mmHg 87%
    06:00 -2°C° 0 mm 5 m/s 729 mmHg 88%
    07:00 -2°C° 0 mm 6 m/s 729 mmHg 86%
    08:00 -2°C° 0 mm 7 m/s 728 mmHg 84%
    09:00 -1°C° 0 mm 7 m/s 728 mmHg 82%
    10:00 0°C° 0 mm 8 m/s 728 mmHg 77%
    11:00 +1°C° 0 mm 8 m/s 728 mmHg 72%
    12:00 +4°C° 0 mm 8 m/s 728 mmHg 67%
    13:00 +3°C° 0 mm 9 m/s 727 mmHg 65%
    14:00 +3°C° 0 mm 9 m/s 727 mmHg 64%
    15:00 +3°C° 0 mm 9 m/s 727 mmHg 63%
    16:00 +3°C° 0 mm 9 m/s 726 mmHg 66%
    17:00 +2°C° 0 mm 8 m/s 726 mmHg 69%
    18:00 +1°C° 0 mm 8 m/s 726 mmHg 72%
    19:00 +1°C° 0 mm 8 m/s 726 mmHg 74%
    20:00 +1°C° 0 mm 8 m/s 726 mmHg 76%
    21:00 0°C° 0 mm 8 m/s 726 mmHg 78%
    22:00 0°C° 0 mm 8 m/s 725 mmHg 79%
    23:00 0°C° 0 mm 8 m/s 725 mmHg 79%

    27 Février, Jeudi

    Heure Température Précipitation Vent Pression Humidité
    00:00 0°C° 0 mm 7 m/s 725 mmHg 80%
    01:00 0°C° 0 mm 7 m/s 724 mmHg 80%
    02:00 0°C° 0 mm 7 m/s 724 mmHg 79%
    03:00 0°C° 0 mm 7 m/s 724 mmHg 79%
    04:00 0°C° 0 mm 7 m/s 724 mmHg 80%
    05:00 0°C° 0 mm 7 m/s 723 mmHg 82%
    06:00 0°C° 0 mm 7 m/s 723 mmHg 83%
    07:00 +2°C° 0 mm 7 m/s 723 mmHg 81%
    08:00 +3°C° 0 mm 7 m/s 723 mmHg 80%
    09:00 +3°C° 0 mm 7 m/s 723 mmHg 78%
    10:00 +5°C° 0 mm 8 m/s 723 mmHg 75%
    11:00 +6°C° 0 mm 8 m/s 723 mmHg 73%
    12:00 +8°C° 0 mm 9 m/s 723 mmHg 70%
    13:00 +8°C° 0 mm 9 m/s 723 mmHg 69%
    14:00 +8°C° 0 mm 9 m/s 723 mmHg 68%
    15:00 +10°C° 0 mm 8 m/s 723 mmHg 67%
    16:00 +9°C° 0 mm 8 m/s 722 mmHg 71%
    17:00 +9°C° 0 mm 7 m/s 722 mmHg 76%
    18:00 +9°C° 0 mm 7 m/s 722 mmHg 80%
    19:00 +8°C° 0 mm 6 m/s 722 mmHg 80%
    20:00 +8°C° 0 mm 6 m/s 722 mmHg 81%
    21:00 +8°C° 0 mm 6 m/s 723 mmHg 81%
    22:00 +7°C° 0 mm 6 m/s 722 mmHg 81%
    23:00 +7°C° 0 mm 6 m/s 722 mmHg 80%

    28 Février, Vendredi

    Heure Température Précipitation Vent Pression Humidité
    00:00 +5°C° 0 mm 6 m/s 722 mmHg 80%
    01:00 +5°C° 0 mm 6 m/s 721 mmHg 81%
    02:00 +6°C° 0 mm 5 m/s 721 mmHg 82%
    03:00 +5°C° 0 mm 5 m/s 720 mmHg 83%
    04:00 +4°C° 0.3 mm 6 m/s 720 mmHg 83%
    05:00 +4°C° 0.3 mm 6 m/s 719 mmHg 84%
    06:00 +3°C° 0.3 mm 7 m/s 719 mmHg 84%
    07:00 +4°C° 0.5 mm 8 m/s 718 mmHg 85%
    08:00 +3°C° 0.5 mm 9 m/s 718 mmHg 86%
    09:00 +3°C° 0.5 mm 9 m/s 718 mmHg 87%
    10:00 +3°C° 0 mm 11 m/s 718 mmHg 79%
    11:00 +1°C° 0 mm 13 m/s 718 mmHg 71%
    12:00 +1°C° 0 mm 14 m/s 719 mmHg 63%
    13:00 0°C° 0.1 mm 14 m/s 720 mmHg 68%
    14:00 -1°C° 0.1 mm 13 m/s 721 mmHg 74%
    15:00 -2°C° 0.1 mm 13 m/s 722 mmHg 79%
    16:00 -3°C° 0 mm 11 m/s 723 mmHg 71%
    17:00 -3°C° 0 mm 10 m/s 725 mmHg 63%
    18:00 -2°C° 0 mm 8 m/s 726 mmHg 55%
    19:00 -2°C° 0 mm 7 m/s 727 mmHg 58%
    20:00 -3°C° 0 mm 6 m/s 728 mmHg 62%
    21:00 -2°C° 0 mm 4 m/s 728 mmHg 65%
    22:00 -2°C° 0 mm 5 m/s 729 mmHg 65%
    23:00 -2°C° 0 mm 5 m/s 729 mmHg 66%

    29 Février, Samedi

    Heure Température Précipitation Vent Pression Humidité
    00:00 -2°C° 0 mm 5 m/s 729 mmHg 67%
    01:00 -2°C° 0 mm 5 m/s 729 mmHg 68%
    02:00 -3°C° 0 mm 4 m/s 729 mmHg 70%
    03:00 -3°C° 0 mm 4 m/s 729 mmHg 72%
    04:00 -3°C° 0 mm 4 m/s 729 mmHg 73%
    05:00 -2°C° 0 mm 3 m/s 729 mmHg 75%
    06:00 -2°C° 0 mm 3 m/s 729 mmHg 77%
    07:00 -1°C° 0 mm 3 m/s 729 mmHg 75%
    08:00 -2°C° 0 mm 4 m/s 729 mmHg 72%
    09:00 -1°C° 0 mm 4 m/s 729 mmHg 70%
    10:00 0°C° 0 mm 5 m/s 729 mmHg 66%
    11:00 +1°C° 0 mm 6 m/s 729 mmHg 62%
    12:00 +2°C° 0 mm 7 m/s 729 mmHg 58%
    13:00 0°C° 0.4 mm 7 m/s 729 mmHg 69%
    14:00 -1°C° 0.4 mm 6 m/s 728 mmHg 80%
    15:00 -2°C° 0.4 mm 6 m/s 728 mmHg 90%
    16:00 -2°C° 0.1 mm 5 m/s 728 mmHg 85%
    17:00 -2°C° 0.1 mm 4 m/s 729 mmHg 79%
    18:00 -1°C° 0.1 mm 3 m/s 729 mmHg 74%
    19:00 -2°C° 0 mm 3 m/s 729 mmHg 74%
    20:00 -2°C° 0 mm 3 m/s 730 mmHg 74%
    21:00 -4°C° 0 mm 3 m/s 731 mmHg 74%
    22:00 -4°C° 0 mm 3 m/s 731 mmHg 73%
    23:00 -4°C° 0 mm 3 m/s 732 mmHg 73%
    Voir plus